When you browse on this site, cookies collect data to enhance your experience and personalize the content and advertising you see.
Visit our Privacy Policy to learn more. By continuing to use the site, you agree to this use of cookies and data.
  • In Portugal
  • List of Countries
  • For 7 days
  • Water Temperature
  • Satellite Maps
  • Weather Map
  • Weather Widgets
  • user-avatar
    Login

    Hourly Weather Pacenki

    Today, 16 November, Friday

    Time Temperature Precipitation Wind Pressure Humidity
    00:00 0°C° 0 mm 1 mps 761 mmHg 90%
    01:00 0°C° 0 mm 1 mps 762 mmHg 89%
    02:00 -1°C° 0 mm 1 mps 762 mmHg 84%
    03:00 -2°C° 0 mm 1 mps 762 mmHg 84%
    04:00 -2°C° 0 mm 1 mps 763 mmHg 83%
    05:00 -2°C° 0 mm 1 mps 763 mmHg 82%
    06:00 -2°C° 0 mm 1 mps 763 mmHg 81%
    07:00 -5°C° 0 mm 2 mps 763 mmHg 79%
    08:00 -5°C° 0 mm 2 mps 764 mmHg 78%
    09:00 -1°C° 0 mm 1 mps 764 mmHg 74%
    10:00 0°C° 0 mm 1 mps 764 mmHg 71%
    11:00 +1°C° 0 mm 1 mps 765 mmHg 67%
    12:00 +1°C° 0 mm 1 mps 765 mmHg 69%
    13:00 +1°C° 0 mm 1 mps 765 mmHg 70%
    14:00 +1°C° 0 mm 1 mps 765 mmHg 74%
    15:00 0°C° 0 mm 1 mps 765 mmHg 75%
    16:00 0°C° 0 mm 1 mps 765 mmHg 75%
    17:00 -1°C° 0 mm 1 mps 765 mmHg 76%
    18:00 -2°C° 0 mm 1 mps 765 mmHg 75%
    19:00 -2°C° 0 mm 1 mps 765 mmHg 74%
    20:00 -2°C° 0 mm 1 mps 765 mmHg 73%
    21:00 -2°C° 0 mm 1 mps 765 mmHg 72%
    22:00 -2°C° 0 mm 1 mps 765 mmHg 70%
    23:00 -2°C° 0 mm 1 mps 765 mmHg 69%

    Tomorrow, 17 November, Saturday

    Time Temperature Precipitation Wind Pressure Humidity
    00:00 -2°C° 0 mm 1 mps 765 mmHg 67%
    01:00 -4°C° 0 mm 0 mps 765 mmHg 66%
    02:00 -4°C° 0 mm 0 mps 765 mmHg 64%
    03:00 -4°C° 0 mm 0 mps 765 mmHg 63%
    04:00 -4°C° 0 mm 0 mps 765 mmHg 63%
    05:00 -4°C° 0 mm 0 mps 764 mmHg 62%
    06:00 -3°C° 0 mm 1 mps 764 mmHg 63%
    07:00 -3°C° 0 mm 1 mps 764 mmHg 63%
    08:00 -3°C° 0 mm 1 mps 764 mmHg 64%
    09:00 -2°C° 0 mm 1 mps 763 mmHg 63%
    10:00 -1°C° 0 mm 1 mps 763 mmHg 62%
    11:00 +1°C° 0 mm 1 mps 763 mmHg 61%
    12:00 -1°C° 0 mm 2 mps 762 mmHg 64%
    13:00 -1°C° 0 mm 2 mps 761 mmHg 66%
    14:00 -1°C° 0 mm 2 mps 761 mmHg 69%
    15:00 -1°C° 0 mm 2 mps 760 mmHg 70%
    16:00 -2°C° 0 mm 3 mps 760 mmHg 72%
    17:00 -2°C° 0 mm 3 mps 759 mmHg 74%
    18:00 -2°C° 0 mm 3 mps 759 mmHg 76%
    19:00 -2°C° 0 mm 3 mps 758 mmHg 77%
    20:00 -2°C° 0 mm 3 mps 757 mmHg 79%
    21:00 -3°C° 0 mm 4 mps 756 mmHg 83%
    22:00 -3°C° 0 mm 4 mps 756 mmHg 86%
    23:00 -3°C° 0 mm 4 mps 755 mmHg 89%

    Day after tomorrow, 18 November, Sunday

    Time Temperature Precipitation Wind Pressure Humidity
    00:00 -3°C° 0 mm 4 mps 754 mmHg 91%
    01:00 -3°C° 0 mm 4 mps 753 mmHg 92%
    02:00 -2°C° 0 mm 4 mps 753 mmHg 93%
    03:00 -2°C° 0.1 mm 4 mps 752 mmHg 94%
    04:00 -2°C° 0.1 mm 4 mps 751 mmHg 95%
    05:00 -1°C° 0.1 mm 4 mps 750 mmHg 96%
    06:00 -1°C° 0.1 mm 4 mps 749 mmHg 96%
    07:00 -1°C° 0.1 mm 4 mps 749 mmHg 96%
    08:00 -1°C° 0.1 mm 4 mps 748 mmHg 96%
    09:00 0°C° 0.1 mm 3 mps 748 mmHg 97%
    10:00 +1°C° 0.1 mm 3 mps 748 mmHg 97%
    11:00 +1°C° 0.1 mm 3 mps 747 mmHg 98%
    12:00 +1°C° 0.2 mm 3 mps 747 mmHg 98%
    13:00 +2°C° 0.2 mm 2 mps 747 mmHg 98%
    14:00 +2°C° 0.2 mm 2 mps 747 mmHg 98%
    15:00 +2°C° 0.2 mm 2 mps 747 mmHg 98%
    16:00 +2°C° 0.2 mm 2 mps 747 mmHg 98%
    17:00 +1°C° 0.2 mm 2 mps 747 mmHg 98%
    18:00 +1°C° 0.3 mm 2 mps 747 mmHg 97%
    19:00 0°C° 0.3 mm 3 mps 747 mmHg 96%
    20:00 +1°C° 0.3 mm 3 mps 747 mmHg 95%
    21:00 0°C° 0.1 mm 3 mps 747 mmHg 94%
    22:00 0°C° 0.1 mm 3 mps 747 mmHg 94%
    23:00 0°C° 0.1 mm 3 mps 747 mmHg 93%

    19 November, Monday

    Time Temperature Precipitation Wind Pressure Humidity
    00:00 0°C° 0.1 mm 3 mps 747 mmHg 94%
    01:00 0°C° 0.1 mm 3 mps 748 mmHg 94%
    02:00 0°C° 0.1 mm 3 mps 748 mmHg 95%
    03:00 0°C° 0.1 mm 3 mps 748 mmHg 95%
    04:00 0°C° 0.1 mm 3 mps 748 mmHg 95%
    05:00 0°C° 0.1 mm 3 mps 748 mmHg 96%
    06:00 0°C° 0.1 mm 3 mps 749 mmHg 95%
    07:00 0°C° 0.1 mm 3 mps 749 mmHg 95%
    08:00 0°C° 0.1 mm 3 mps 750 mmHg 95%
    09:00 0°C° 0.1 mm 3 mps 750 mmHg 95%
    10:00 0°C° 0.1 mm 3 mps 750 mmHg 95%
    11:00 +1°C° 0.1 mm 3 mps 751 mmHg 95%
    12:00 +1°C° 0.1 mm 3 mps 751 mmHg 95%
    13:00 0°C° 0.1 mm 3 mps 751 mmHg 95%
    14:00 0°C° 0.1 mm 3 mps 751 mmHg 95%
    15:00 0°C° 0.1 mm 3 mps 751 mmHg 94%
    16:00 0°C° 0.1 mm 3 mps 751 mmHg 94%
    17:00 0°C° 0.1 mm 3 mps 751 mmHg 94%
    18:00 -1°C° 0.1 mm 3 mps 751 mmHg 94%
    19:00 -1°C° 0.1 mm 3 mps 752 mmHg 94%
    20:00 -1°C° 0.1 mm 3 mps 752 mmHg 94%
    21:00 -1°C° 0.1 mm 3 mps 752 mmHg 95%
    22:00 -1°C° 0.1 mm 3 mps 752 mmHg 95%
    23:00 -1°C° 0.1 mm 3 mps 752 mmHg 95%

    20 November, Tuesday

    Time Temperature Precipitation Wind Pressure Humidity
    00:00 -2°C° 0.1 mm 3 mps 752 mmHg 94%
    01:00 -2°C° 0.1 mm 3 mps 753 mmHg 94%
    02:00 -2°C° 0.1 mm 3 mps 753 mmHg 93%
    03:00 -4°C° 0 mm 3 mps 752 mmHg 92%
    04:00 -5°C° 0 mm 3 mps 752 mmHg 91%
    05:00 -5°C° 0 mm 3 mps 752 mmHg 90%
    06:00 -5°C° 0 mm 2 mps 752 mmHg 90%
    07:00 -5°C° 0 mm 2 mps 752 mmHg 89%
    08:00 -5°C° 0 mm 2 mps 752 mmHg 88%
    09:00 -4°C° 0 mm 2 mps 752 mmHg 87%
    10:00 -4°C° 0 mm 2 mps 752 mmHg 85%
    11:00 -4°C° 0 mm 3 mps 752 mmHg 83%
    12:00 -2°C° 0 mm 3 mps 752 mmHg 85%
    13:00 -2°C° 0 mm 2 mps 751 mmHg 87%
    14:00 -2°C° 0 mm 2 mps 751 mmHg 88%
    15:00 -2°C° 0 mm 2 mps 751 mmHg 90%
    16:00 -2°C° 0 mm 2 mps 751 mmHg 92%
    17:00 -3°C° 0 mm 2 mps 750 mmHg 94%
    18:00 -2°C° 0 mm 2 mps 750 mmHg 94%
    19:00 -2°C° 0 mm 2 mps 750 mmHg 94%
    20:00 -2°C° 0 mm 2 mps 750 mmHg 94%
    21:00 -2°C° 0 mm 2 mps 750 mmHg 94%
    22:00 -2°C° 0 mm 2 mps 750 mmHg 95%
    23:00 -2°C° 0 mm 2 mps 750 mmHg 95%

    21 November, Wednesday

    Time Temperature Precipitation Wind Pressure Humidity
    00:00 -2°C° 0 mm 2 mps 750 mmHg 95%
    01:00 -2°C° 0 mm 2 mps 750 mmHg 95%
    02:00 -2°C° 0 mm 2 mps 750 mmHg 95%
    03:00 -2°C° 0 mm 2 mps 750 mmHg 94%
    04:00 -2°C° 0 mm 3 mps 750 mmHg 94%
    05:00 -2°C° 0 mm 3 mps 750 mmHg 94%
    06:00 -2°C° 0 mm 3 mps 750 mmHg 93%
    07:00 -2°C° 0 mm 3 mps 750 mmHg 93%
    08:00 -2°C° 0 mm 3 mps 750 mmHg 93%
    09:00 -2°C° 0 mm 4 mps 750 mmHg 92%
    10:00 -2°C° 0 mm 4 mps 750 mmHg 92%
    11:00 -2°C° 0 mm 4 mps 750 mmHg 91%
    12:00 -2°C° 0 mm 4 mps 750 mmHg 91%
    13:00 -1°C° 0 mm 5 mps 750 mmHg 91%
    14:00 -1°C° 0 mm 5 mps 750 mmHg 90%
    15:00 -1°C° 0 mm 5 mps 750 mmHg 90%
    16:00 -1°C° 0 mm 5 mps 750 mmHg 90%
    17:00 -2°C° 0 mm 5 mps 750 mmHg 89%
    18:00 -3°C° 0 mm 6 mps 750 mmHg 89%
    19:00 -3°C° 0 mm 6 mps 750 mmHg 89%
    20:00 -3°C° 0 mm 6 mps 751 mmHg 89%
    21:00 -3°C° 0 mm 6 mps 751 mmHg 89%
    22:00 -3°C° 0 mm 6 mps 751 mmHg 89%
    23:00 -4°C° 0 mm 6 mps 751 mmHg 88%
    Show more